Flag for Norway Weather past 2 weeks in Vennesla, Norway

Now
52 °F

Drizzle. Broken clouds.


Feels Like: 48 °F
Forecast: 52 / 57 °F
Wind: 10 mph from Southwest

Location: Kristiansand / Kjevik

Current Time: Oct 23, 2014 at 6:10:32 PM

Latest Report: Oct 23, 2014 at 5:20 PM


Visibility: N/A

Pressure: 29.95 "Hg

Humidity: 94%

Dew point: 50 °F

Location of VenneslaLocation

Historic Weather in Vennesla — Graph

°F

Vennesla temperature yesterday

Maximum temperature yesterday: 54 °F (at 12:20 AM)
Minimum temperature yesterday: 50 °F (at 7:20 PM)
Average temperature yesterday: 53 °F

Past Weeks' High & Low Weather Summary

 TemperatureHumidityPressure
High59 °F (Oct 8, 4:20 PM)100% (Oct 10, 8:50 AM)30.04 "Hg (Oct 10, 8:50 AM)
Low37 °F (Oct 13, 5:20 AM)48% (Oct 13, 4:20 PM)29.27 "Hg (Oct 21, 5:50 PM)
Average50 °F88%29.73 "Hg
* Reported Oct 8 4:20 PM — Oct 23 4:50 PM, Vennesla, Weather by CustomWeather, © 2014

Note: Actual official high and low records may vary slightly from our data, if they occured in-between our weather recording intervals... More about our weather records

Advertising

Vennesla weather history for previous 24 hours

 ConditionsComfort  
Time TempWeatherWind HumidityBarometerVisibility
4:50 PM
Oct 23
52 °FDrizzle. Partly sunny.12 mph94%29.95 "Hg5 mi
4:20 PM52 °FDrizzle. Partly sunny.10 mph94%29.95 "Hg4 mi
3:50 PM52 °FDrizzle. Broken clouds.10 mph94%29.95 "Hg4 mi
3:20 PM52 °FSprinkles. Broken clouds.13 mph94%29.95 "Hg6 mi
2:50 PM54 °FSprinkles. Partly sunny.9 mph94%29.95 "Hg6 mi
2:20 PM54 °FPartly sunny.6 mph94%29.95 "HgN/A
1:50 PM54 °FBroken clouds.7 mph88%29.95 "HgN/A
1:20 PM54 °FPartly sunny.7 mph94%29.95 "HgN/A
12:50 PM52 °FDrizzle. Partly sunny.13 mph100%29.95 "HgN/A
12:20 PM54 °FLight rain. Fog.12 mph94%29.95 "Hg2 mi
11:50 AM52 °FLight rain. Fog.14 mph100%29.95 "Hg2 mi
11:20 AM52 °FDrizzle. Fog.9 mph94%29.95 "Hg2 mi
10:50 AM50 °FDrizzle. Fog.6 mph100%29.98 "Hg2 mi
10:20 AM50 °FDrizzle. Fog.2 mph94%29.98 "Hg1 mi
9:50 AM48 °FDrizzle. Fog.5 mph94%29.98 "Hg2 mi
9:20 AM48 °FDrizzle. Fog.3 mph94%29.98 "Hg1 mi
8:50 AM46 °FPassing clouds.3 mph100%29.98 "HgN/A
8:20 AM46 °FPassing clouds.3 mph100%29.98 "HgN/A
7:50 AM48 °FPartly cloudy.2 mph87%29.95 "HgN/A
7:20 AM48 °FLight rain. Passing clouds.2 mph87%29.95 "Hg10 mi
6:50 AM48 °FClear.3 mph87%29.95 "Hg10 mi
6:20 AM48 °FPassing clouds.7 mph87%29.95 "HgN/A
5:50 AM48 °FPassing clouds.9 mph87%29.95 "HgN/A
5:20 AM50 °FLow clouds.10 mph94%29.95 "HgN/A
4:50 AM50 °FLow clouds.7 mph100%29.95 "HgN/A
4:20 AM52 °FMostly cloudy.7 mph94%29.95 "HgN/A
3:50 AM52 °FPartly cloudy.7 mph94%29.95 "HgN/A
3:20 AM52 °FLow clouds.8 mph94%29.95 "HgN/A
2:50 AM54 °FFog.7 mph94%29.95 "Hg3 mi
2:20 AM54 °FDrizzle. Low clouds.8 mph94%29.95 "Hg3 mi
1:50 AM54 °FLow clouds.8 mph94%29.95 "HgN/A
1:20 AM52 °FLight rain. Passing clouds.7 mph100%29.95 "HgN/A
12:50 AM52 °FRain. Mostly cloudy.10 mph94%29.95 "Hg2 mi
12:20 AM52 °FDrizzle. Fog.12 mph94%29.95 "Hg2 mi
11:50 PM
Oct 22
52 °FRain. Mostly cloudy.9 mph94%29.95 "Hg2 mi
11:20 PM52 °FDrizzle. Fog.9 mph94%29.95 "Hg2 mi
10:50 PM52 °FDrizzle. Low clouds.8 mph94%29.95 "Hg4 mi
10:20 PM50 °FDrizzle. Fog.8 mph100%29.95 "Hg3 mi
9:50 PM50 °FLight rain. Fog.8 mph100%29.95 "Hg3 mi
9:20 PM50 °FLight rain. Passing clouds.9 mph94%29.95 "Hg3 mi
8:50 PM50 °FPassing clouds.8 mph94%29.95 "Hg5 mi
8:20 PM50 °FLight rain. Passing clouds.8 mph94%29.95 "Hg4 mi
7:50 PM50 °FLight rain. Passing clouds.8 mph100%29.92 "Hg4 mi
7:20 PM50 °FLight rain. Passing clouds.9 mph100%29.92 "Hg4 mi
6:50 PM52 °FDrizzle. Partly sunny.9 mph94%29.92 "Hg6 mi
6:20 PM52 °FDrizzle. Partly sunny.8 mph94%29.92 "Hg5 mi
Weather by CustomWeather, © 2014

See weather overviewHow to use our weather pages